User: anonymous   Login
Location: Kikino
(54.4440°N, 112.0940°W)
Time: 12:16:27
(UTC+00:00)
Language:

A-11 Canister half - Orbit

View from above orbital plane
View from above orbital plane
View from above satellite
View from above satellite

Ground track
Ground track

The orbit data is extracted from the following two-line orbital elements,

1 00051U 60009C   24139.59537275 -.00000062  00000-0  23522-3 0  9999
2 00051  47.2118 239.7183 0107355  98.7033 262.5932 12.18327518838562
Epoch (UTC): 18 May 2024 14:17:20
Eccentricity: 0.0107355
inclination: 47.2118°
perigee height: 1514 km
apogee height: 1685 km
right ascension of ascending node: 239.7183°
argument of perigee: 98.7033°
revolutions per day: 12.18327518
mean anomaly at epoch: 262.5932°
orbit number at epoch: 83856

The dashed part of the orbit path shows where the satellite is in the earth's shadow,  

DLR